Los Alamitos, CA

12:43 AM PDT on August 31, 2016 (GMT -0700)
Los Alamitos Army Air Field

Weather History for KSLI - December, 2013

Change the Weather History Date:

Tuesday, December 31, 2013

  Actual Average Record
Temperature  
Mean Temperature 52 °F -  
Max Temperature 66 °F 66 °F 73 °F (1997)
Min Temperature 39 °F 48 °F 33 °F (2010)
Degree Days  
Heating Degree Days 12    
Growing Degree Days 2 (Base 50)    
Moisture  
Dew Point 45 °F    
Average Humidity 88    
Maximum Humidity 100    
Minimum Humidity 25    
Precipitation  
Precipitation 0.00 in - - ()
Sea Level Pressure  
Sea Level Pressure 30.14 in    
Wind  
Wind Speed 2 mph (NE)    
Max Wind Speed 8 mph    
Max Gust Speed -    
Visibility 6 miles    
Events Fog    
Averages and records for this station are not official NWS values.
T = Trace of Precipitation, MM = Missing Value Source: NWS Daily Summary

Daily Weather History Graph

Daily Weather History Graph

Search for Another Location

Airport or City:

Trip Planner

Search our weather history database for the weather conditions in past years. The results will help you decide how hot, cold, wet, or windy it might be!

Date:

Astronomy

Dec. 31, 2013 Rise Set
Actual Time 6:56 AM PST 4:54 PM PST
Civil Twilight 6:29 AM PST 5:21 PM PST
Nautical Twilight 5:58 AM PST 5:52 PM PST
Astronomical Twilight 5:27 AM PST 6:23 PM PST
Moon 5:56 AM PST 4:33 PM PST
Length of Visible Light 10h 52m
Length of Day
9h 57m
Waning Crescent, 1% of the Moon is Illuminated
Dec 31
Waning Crescent
Jan 1
New
Jan 7
First Quarter
Jan 15
Full
Jan 23
Last Quarter

Hourly Weather History & Observations

Time (PST) Temp. Windchill Dew Point Humidity Pressure Visibility Wind Dir Wind Speed Gust Speed Precip Events Conditions
12:58 AM 44.1 °F - 44.1 °F 100% 30.20 in 10.0 mi Calm Calm - N/A   Clear
1:58 AM 41.9 °F - 41.9 °F 100% 30.19 in 10.0 mi North 2.3 mph - N/A   Clear
2:58 AM 41.9 °F - 41.9 °F 100% 30.18 in 10.0 mi WNW 1.2 mph - N/A   Clear
3:58 AM 39.6 °F - 39.4 °F 99% 30.17 in 10.0 mi NNW 1.2 mph - N/A   Clear
4:58 AM 40.3 °F - 40.3 °F 100% 30.17 in 10.0 mi NE 2.3 mph - N/A   Clear
5:58 AM 41.5 °F - 40.5 °F 96% 30.18 in 10.0 mi NNE 2.3 mph - N/A   Clear
6:58 AM 39.2 °F - 39.2 °F 100% 30.18 in 10.0 mi Calm Calm - N/A   Partly Cloudy
7:58 AM 41.2 °F - 40.5 °F 97% 30.19 in 7.0 mi North 2.3 mph - N/A   Partly Cloudy
8:58 AM 51.6 °F - 28.0 °F 40% 30.21 in 10.0 mi ENE 3.5 mph - N/A   Partly Cloudy
9:58 AM 57.2 °F - 30.7 °F 37% 30.21 in 10.0 mi Variable 1.2 mph - N/A   Partly Cloudy
10:58 AM 61.9 °F - 30.0 °F 30% 30.20 in 10.0 mi SSW 2.3 mph - N/A   Partly Cloudy
11:58 AM 66.4 °F - 29.1 °F 25% 30.15 in 10.0 mi SSW 3.5 mph - N/A   Partly Cloudy
12:58 PM 66.9 °F - 38.7 °F 35% 30.13 in 10.0 mi SSE 5.8 mph - N/A   Partly Cloudy
1:58 PM 66.2 °F - 45.7 °F 48% 30.11 in 10.0 mi South 8.1 mph - N/A   Clear
2:58 PM 64.2 °F - 52.0 °F 64% 30.10 in 10.0 mi SSW 8.1 mph - N/A   Clear
3:58 PM 61.9 °F - 55.8 °F 80% 30.10 in 10.0 mi South 5.8 mph - N/A   Clear
4:58 PM 58.5 °F - 57.4 °F 96% 30.10 in 10.0 mi South 5.8 mph - N/A   Clear
5:58 PM 57.0 °F - 57.0 °F 100% 30.10 in 10.0 mi SE 2.3 mph - N/A   Scattered Clouds
6:58 PM 54.0 °F - 54.0 °F 100% 30.11 in 10.0 mi ENE 4.6 mph - N/A   Scattered Clouds
7:58 PM 51.4 °F - 51.4 °F 100% 30.12 in 10.0 mi North 2.3 mph - N/A   Scattered Clouds
8:58 PM 49.5 °F - 49.5 °F 100% 30.13 in 7.0 mi Calm Calm - N/A   Scattered Clouds
9:58 PM 46.9 °F - 46.9 °F 100% 30.13 in 7.0 mi Calm Calm - N/A   Scattered Clouds
10:08 PM 46.4 °F - 46.4 °F 100% 30.12 in 2.0 mi NNE 2.3 mph - N/A   Clear
10:13 PM 46.4 °F 45.2 °F 46.4 °F 100% 30.12 in 0.8 mi NNE 3.5 mph - N/A   Clear
10:18 PM 46.4 °F 45.2 °F 46.4 °F 100% 30.12 in 0.5 mi NNE 3.5 mph - N/A Fog Fog
10:23 PM 46.4 °F 45.2 °F 46.4 °F 100% 30.12 in 0.8 mi NNE 3.5 mph - N/A   Clear
10:33 PM 48.2 °F - 48.2 °F 100% 30.11 in 1.2 mi NE 2.3 mph - N/A   Clear
10:38 PM 48.2 °F - 48.2 °F 100% 30.11 in 1.5 mi Calm Calm - N/A   Clear
10:43 PM 48.2 °F - 48.2 °F 100% 30.12 in 0.8 mi ENE 2.3 mph - N/A   Clear
10:53 PM 48.2 °F - 48.2 °F 100% 30.12 in 1.0 mi Calm Calm - N/A   Clear
10:58 PM 48.2 °F - 48.2 °F 100% 30.13 in 0.5 mi Calm Calm - N/A Fog Fog
11:03 PM 46.4 °F - 46.4 °F 100% 30.12 in 0.2 mi Calm Calm - N/A Fog Fog
11:28 PM 42.8 °F - 42.8 °F 100% 30.11 in 0.2 mi SW 2.3 mph - N/A Fog Fog
11:33 PM 44.6 °F - 44.6 °F 100% 30.11 in 1.2 mi SW 2.3 mph - N/A   Clear
11:38 PM 44.6 °F - 44.6 °F 100% 30.11 in 0.5 mi SW 2.3 mph - N/A Fog Fog
11:43 PM 44.6 °F - 44.6 °F 100% 30.11 in 0.2 mi Calm Calm - N/A Fog Fog
11:58 PM 43.5 °F - 43.5 °F 100% 30.13 in 0.2 mi Calm Calm - N/A Fog Fog